Zurück zum Katalog

STARLINK-35348

AktivKommunikationVLEO
NORAD 65904·PAYLOAD·🇺🇸 United States

Gestartet Oct 7, 2025 von Cape Canaveral Space Force Station

Loading…

Nächste Überflüge (nächste 24 Stunden)

TLE

AktuellSource: CelesTrak SupGP

Epoche: Sep 14, 2026, 21:24 UTC

1 65904C 25224Y   26257.89215278  .00025674  00000+0  75833-3 0  2572
2 65904  53.1577 208.0432 0001309  89.2730 323.1241 15.34386482    16

Verfolge STARLINK-35348 in Echtzeit mit AllMySat

Download on the App Store